Weather History for Fort Drum, NY

Change the Weather History Date:

Thursday, October 24, 2013

  Actual Average Record
Temperature  
Mean Temperature 36 °F -  
Max Temperature 45 °F 50 °F 64 °F (2001)
Min Temperature 28 °F 34 °F 19 °F (2002)
Degree Days  
Heating Degree Days 29    
Moisture  
Dew Point 33 °F    
Average Humidity 80    
Maximum Humidity 100    
Minimum Humidity 65    
Precipitation  
Precipitation 0.00 in - - ()
Sea Level Pressure  
Sea Level Pressure 29.78 in    
Wind  
Wind Speed 7 mph (West)    
Max Wind Speed 15 mph    
Max Gust Speed 24 mph    
Visibility 10 miles    
Events Rain    
Averages and records for this station are not official NWS values.
T = Trace of Precipitation, MM = Missing Value Source: NWS Daily Summary

Daily Weather History Graph

Daily Weather History Graph

Search for Another Location

Airport:

Trip Planner

Search our weather history database for the weather conditions in past years. The results will help you decide how hot, cold, wet, or windy it might be!

Date:

Astronomy

Oct. 24, 2013 Rise Set
Actual Time 7:29 AM EDT 6:04 PM EDT
Civil Twilight 6:59 AM EDT 6:33 PM EDT
Nautical Twilight 6:25 AM EDT 7:07 PM EDT
Astronomical Twilight 5:52 AM EDT 7:40 PM EDT
Moon 10:22 PM EDT (10/24) 12:33 PM EDT (10/24)
Length of Visible Light 11h 34m
Length of Day
10h 34m
Waning Gibbous, 71% of the Moon is Illuminated
Oct 24
Waning Gibbous
Oct 26
Last Quarter
Nov 3
New
Nov 10
First Quarter
Nov 17
Full

Hourly Weather History & Observations

Time (EDT) Temp. Windchill Dew Point Humidity Pressure Visibility Wind Dir Wind Speed Gust Speed Precip Events Conditions
12:58 AM 29.8 °F 26.3 °F 26.8 °F 88% 29.74 in 10.0 mi SW 3.5 mph - N/A   Clear
1:58 AM 28.4 °F 22.2 °F 26.4 °F 92% 29.73 in 10.0 mi South 5.8 mph - N/A   Clear
2:43 AM 32.0 °F 27.5 °F 28.4 °F 87% 29.71 in 10.0 mi Variable 4.6 mph - N/A   Mostly Cloudy
2:53 AM 32.0 °F 28.7 °F 28.4 °F 87% 29.71 in 10.0 mi South 3.5 mph - N/A   Overcast
2:58 AM 32.0 °F 26.4 °F 28.9 °F 88% 29.73 in 10.0 mi South 5.8 mph - 0.00 in   Overcast
3:58 AM 30.7 °F 27.3 °F 28.2 °F 90% 29.72 in 10.0 mi SSW 3.5 mph - N/A   Partly Cloudy
4:58 AM 32.5 °F 27.1 °F 29.7 °F 89% 29.72 in 10.0 mi SW 5.8 mph - N/A   Clear
5:58 AM 34.2 °F - 32.4 °F 93% 29.74 in 10.0 mi West 2.3 mph - N/A   Scattered Clouds
6:23 AM 32.0 °F - 32.0 °F 100% 29.72 in 10.0 mi West 2.3 mph - N/A   Mostly Cloudy
6:48 AM 32.0 °F 28.7 °F 32.0 °F 100% 29.72 in 10.0 mi WSW 3.5 mph - N/A   Scattered Clouds
6:58 AM 33.3 °F 30.2 °F 32.2 °F 96% 29.74 in 10.0 mi SW 3.5 mph - N/A   Partly Cloudy
7:18 AM 32.0 °F 28.7 °F 32.0 °F 100% 29.73 in 10.0 mi Variable 3.5 mph - N/A   Mostly Cloudy
7:33 AM 32.0 °F - 32.0 °F 100% 29.73 in 10.0 mi SW 2.3 mph - N/A   Overcast
7:58 AM 34.2 °F 31.2 °F 33.1 °F 96% 29.75 in 10.0 mi SSW 3.5 mph - N/A   Mostly Cloudy
8:58 AM 36.3 °F 33.7 °F 34.7 °F 94% 29.76 in 10.0 mi Variable 3.5 mph - N/A   Mostly Cloudy
9:58 AM 41.4 °F 33.6 °F 36.1 °F 82% 29.76 in 10.0 mi West 15.0 mph 23.0 mph N/A   Overcast
10:03 AM 41.0 °F 34.7 °F 35.6 °F 81% 29.74 in 10.0 mi West 10.4 mph 23.0 mph N/A   Overcast
10:28 AM 42.8 °F 36.2 °F 35.6 °F 76% 29.75 in 10.0 mi West 12.7 mph 18.4 mph N/A   Overcast
10:54 AM 42.8 °F 37.0 °F 35.6 °F 76% 29.75 in 10.0 mi WNW 10.4 mph 18.4 mph N/A   Light Drizzle
10:58 AM 41.9 °F 35.0 °F 35.8 °F 79% 29.77 in 10.0 mi West 12.7 mph 23.0 mph 0.00 in   Light Drizzle
11:11 AM 42.8 °F 35.8 °F 35.6 °F 76% 29.75 in 10.0 mi West 13.8 mph 17.3 mph N/A   Overcast
11:31 AM 42.8 °F 37.5 °F 37.4 °F 81% 29.74 in 10.0 mi WNW 9.2 mph - N/A   Scattered Clouds
11:36 AM 44.6 °F 38.8 °F 37.4 °F 76% 29.75 in 10.0 mi WNW 11.5 mph 16.1 mph N/A Rain Light Rain
11:51 AM 41.0 °F 34.7 °F 37.4 °F 87% 29.75 in 10.0 mi WNW 10.4 mph 17.3 mph N/A   Light Drizzle
11:58 AM 41.4 °F 34.3 °F 36.7 °F 83% 29.76 in 10.0 mi West 12.7 mph - 0.00 in   Light Drizzle
12:03 PM 41.0 °F 33.5 °F 37.4 °F 87% 29.75 in 10.0 mi West 13.8 mph - N/A   Scattered Clouds
12:53 PM 44.6 °F 39.2 °F 33.8 °F 66% 29.73 in 10.0 mi West 10.4 mph 21.9 mph N/A   Mostly Cloudy
12:58 PM 44.8 °F 38.7 °F 33.6 °F 65% 29.75 in 10.0 mi West 12.7 mph 21.9 mph 0.00 in   Overcast
1:12 PM 44.6 °F 38.8 °F 33.8 °F 66% 29.74 in 10.0 mi WNW 11.5 mph 18.4 mph N/A Rain Light Rain
1:21 PM 44.6 °F 38.1 °F 33.8 °F 66% 29.73 in 10.0 mi West 13.8 mph 20.7 mph N/A   Mostly Cloudy
1:30 PM 44.6 °F 39.2 °F 33.8 °F 66% 29.74 in 10.0 mi NW 10.4 mph 24.2 mph N/A   Light Drizzle
1:46 PM 42.8 °F 38.0 °F 35.6 °F 76% 29.74 in 10.0 mi West 8.1 mph 17.3 mph N/A   Mostly Cloudy
1:55 PM 42.8 °F 35.8 °F 35.6 °F 76% 29.74 in 10.0 mi WNW 13.8 mph 18.4 mph N/A   Light Drizzle
1:58 PM 42.4 °F 36.5 °F 35.1 °F 75% 29.77 in 10.0 mi WNW 10.4 mph 18.4 mph 0.00 in   Light Drizzle
2:08 PM 41.0 °F 35.8 °F 35.6 °F 81% 29.74 in 10.0 mi West 8.1 mph - N/A Rain Light Rain
2:09 PM 41.0 °F 35.8 °F 35.6 °F 81% 29.75 in 10.0 mi West 8.1 mph - N/A   Mostly Cloudy
2:14 PM 42.8 °F 38.6 °F 35.6 °F 76% 29.74 in 10.0 mi West 6.9 mph - N/A   Mostly Cloudy
2:39 PM 42.8 °F 37.5 °F 33.8 °F 70% 29.75 in 10.0 mi West 9.2 mph 17.3 mph N/A   Mostly Cloudy
2:58 PM 43.0 °F 37.2 °F 33.3 °F 69% 29.77 in 10.0 mi West 10.4 mph 18.4 mph 0.00 in   Mostly Cloudy
3:58 PM 43.5 °F 37.9 °F 34.3 °F 70% 29.80 in 10.0 mi WNW 10.4 mph - N/A   Mostly Cloudy
3:59 PM 42.8 °F 37.5 °F 33.8 °F 70% 29.78 in 10.0 mi WNW 9.2 mph - N/A   Light Drizzle
4:14 PM 42.8 °F 38.6 °F 33.8 °F 70% 29.78 in 10.0 mi West 6.9 mph - N/A   Mostly Cloudy
4:58 PM 43.0 °F 39.5 °F 33.4 °F 69% 29.82 in 10.0 mi Variable 5.8 mph - 0.00 in   Mostly Cloudy
5:58 PM 42.1 °F 38.4 °F 32.0 °F 67% 29.84 in 10.0 mi WNW 5.8 mph - N/A   Clear
6:58 PM 40.8 °F 36.9 °F 32.2 °F 71% 29.86 in 10.0 mi WNW 5.8 mph - N/A   Mostly Cloudy
7:58 PM 40.8 °F 36.9 °F 31.3 °F 69% 29.88 in 10.0 mi WNW 5.8 mph - N/A   Partly Cloudy
8:58 PM 39.6 °F 37.4 °F 31.3 °F 72% 29.90 in 10.0 mi Variable 3.5 mph - N/A   Overcast
9:05 PM 39.2 °F 35.9 °F 32.0 °F 75% 29.88 in 10.0 mi Variable 4.6 mph - N/A   Light Drizzle
9:14 PM 39.2 °F 37.0 °F 32.0 °F 75% 29.88 in 10.0 mi NNW 3.5 mph - N/A   Mostly Cloudy
9:39 PM 39.2 °F - 32.0 °F 75% 29.89 in 10.0 mi Variable 1.2 mph - N/A   Overcast
9:58 PM 38.8 °F 34.6 °F 32.9 °F 79% 29.92 in 10.0 mi NNW 5.8 mph - 0.00 in   Overcast
10:03 PM 39.2 °F 35.0 °F 32.0 °F 75% 29.90 in 10.0 mi Variable 5.8 mph - N/A   Overcast
10:58 PM 37.9 °F - 32.0 °F 79% 29.94 in 10.0 mi NW 2.3 mph - N/A   Overcast
11:58 PM 37.2 °F 33.6 °F 32.0 °F 81% 29.95 in 10.0 mi Variable 4.6 mph - N/A   Overcast